This is the latest recevied weather packets stored in our database for station/object WB6ANP. If no packets are shown the sender has not sent any weather packets the latest 10 day(s).
| Time | Temp. | Humidity | Pressure | Rain* | Wind** | Luminosity | Snow |
|---|---|---|---|---|---|---|---|
| 1777599287 | 15° C | 84% | 1014.1 hPa | 0 mm | - | 0 W/m² | - |
| 1777598982 | 15° C | 84% | 1014.2 hPa | 0 mm | - | 0 W/m² | - |
| 1777598680 | 15° C | 84% | 1013.8 hPa | 0 mm | - | 0 W/m² | - |
| 1777598375 | 15° C | 84% | 1013.8 hPa | 0 mm | - | 1 W/m² | - |
| 1777598074 | 15° C | 84% | 1014.1 hPa | 0 mm | - | 1 W/m² | - |
| 1777597773 | 15° C | 84% | 1014.1 hPa | 0 mm | - | 2 W/m² | - |
| 1777597468 | 15° C | 84% | 1013.7 hPa | 0 mm | - | 3 W/m² | - |
| 1777597164 | 15° C | 84% | 1013.7 hPa | 0 mm | - | 6 W/m² | - |
| 1777596860 | 15° C | 86% | 1013.7 hPa | 0 mm | - | 7 W/m² | - |
| 1777596556 | 15° C | 87% | 1013.6 hPa | 0 mm | - | 13 W/m² | - |
| 1777596254 | 15° C | 87% | 1013.6 hPa | 0 mm | - | 12 W/m² | - |
| 1777595951 | 15° C | 87% | 1013.8 hPa | 0 mm | - | 7 W/m² | - |
| 1777595651 | 15° C | 87% | 1014.1 hPa | 0 mm | - | 7 W/m² | - |
| 1777595346 | 15° C | 86% | 1014.4 hPa | 0 mm | - | 7 W/m² | - |
| 1777595043 | 15° C | 86% | 1014.5 hPa | 0 mm | - | 7 W/m² | - |
| 1777594740 | 15° C | 86% | 1014.2 hPa | 0 mm | - | 8 W/m² | - |
| 1777594436 | 15° C | 86% | 1013.9 hPa | 0 mm | - | 11 W/m² | - |
| 1777594131 | 15° C | 85% | 1013.8 hPa | 0 mm | - | 13 W/m² | - |
| 1777593828 | 15° C | 85% | 1013.9 hPa | 0 mm | - | 17 W/m² | - |
| 1777593525 | 15° C | 84% | 1013.9 hPa | 0 mm | - | 20 W/m² | - |
| 1777593218 | 15.56° C | 85% | 1014 hPa | 0 mm | - | 37 W/m² | - |
| 1777592918 | 15.56° C | 84% | 1014.1 hPa | 0 mm | - | 23 W/m² | - |
| 1777592614 | 15.56° C | 84% | 1013.8 hPa | 0 mm | - | 21 W/m² | - |
| 1777592310 | 15.56° C | 84% | 1013.6 hPa | 0 mm | - | 40 W/m² | - |
| 1777592006 | 15.56° C | 85% | 1013.5 hPa | 0 mm | - | 41 W/m² | - |
* Rain latest hour (hover to see other rain measurements)
** Current wind speed in m/s (hover to see current wind gust speed)